STARLINK-35965, 66631

Orbit data source: Space-Track

STARLINK-35965, 66631 is a payload satellite owned by SpaceX/Seattle (US) in LEO that was launched on Sun, 23 Nov 2025 UTC via an FALCON 9 launch vehicle from the Air Force Western Test Range (AFWTR). Payload-class satellites include a variety of spacecraft equipped with specific instruments for various scientific and technological missions. These include communications satellites like Starlink; space stations such as the ISS; scientific satellites like the Hubble; Earth observation satellites from companies like Planet Labs, Umbra, and HawkEye 360; GPS; miniature CubeSats for education and research; and military/defense satellites.

Loading next visibility...
Identifier
66631, 2025-271Q
Orbit
LEO
Country
Flag of USUS
Related business
Manufacturer
SpaceX/Seattle
Mission
Operational Commercial Communications
Bus & Motor
STARLINK V2MO, Unknown motor
Mass
575 kg wet, ~530 kg dry
Launch date (UTC)
2025-11-23 (5 months ago)
Launch vehicle
FALCON 9
Launch site
Air Force Western Test Range (AFWTR)
Object type
Payload
Rocket body
Debris
Shape & HBR
Box + 2 Pan, 17.7 m
Radar Cross Section
36.964 m²

Expand to show TLE details & history
Last TLE update: 8 hours ago

TLE from 8 hours ago
0 STARLINK-35965
1 66631U 25271Q   26128.25002315  .00040316  00000-0  11609-2 0  9999
2 66631  53.1601 222.0821 0000626 101.6504 217.5789 15.35387841  5928
Epoch: 2026-05-08T06:00Z
TLE epoch observation values (Epoch: 2026-05-08T06:00:02.000Z)
Latitude
-31.72016°
Longitude
-121.43053°
Altitude
469.922 km
Speed
7.631 km/s
True Right ascension
12h 58m 38s
True Declination
-31° 33' 36"
Sunlit
Object was in full shadow at epoch
Visualization orbit readout
Latitude
Unknown
Longitude
Unknown
Altitude
Unknown
Speed
Unknown
Apparent Right ascension
Unknown
Apparent Declination
Unknown
Sunlit
N/A
Visualization observer readout
Local Sidereal Time
21:45:37
Azimuth
Unknown
Elevation
Unknown
Doppler factor
Unknown
Orbital elements
Apogee altitude
460.454 km
Perigee altitude
459.598 km
Semi-major axis
6,838.163 km
Eccentricity
0.00006
Inclination
53.1601°
RAAN
222.0821°
Arg. of periapsis
101.6504°
True anomaly
217.57453°
Mean anomaly
217.5789°
Eccentric anomaly
217.57671°
Mean motion
3.83826 °/min
Orbital period
93.79 mins
BSTAR
0.0011609
Loading maneuver chart data...
Computing Atmospheric mass density...
Loading historical data...
Loading historical data...
Loading historical data...
Loading historical data...
Loading historical data...
Loading historical data...
Loading historical data...

Documentation

Showing up to 5 results
|